Terug naar catalogus

STARLINK-31622

ActiefCommunicatieVLEO
NORAD 59456·PAYLOAD·🇺🇸 United States

Gelanceerd Apr 10, 2024 vanaf Cape Canaveral Space Force Station

Loading…

Volgende Passages (komende 24 uur)

TLE

VersSource: CelesTrak SupGP

Epoch: Sep 15, 2026, 02:45 UTC

1 59456C 24068B   26258.11506944 -.00028110  00000+0 -10175-2 0  2589
2 59456  43.0045  44.9583 0002072 281.3542 321.6786 15.27611970    19

Volg STARLINK-31622 in realtime met AllMySat

Download on the App Store